| time (UTC) | temp F | wind direction | speed MPH | gust MPH | rain 1hr in | rain 24hr in | rain mn in | humidity % | barometer mb |
| 20260831074616 | 63 | 0 | 0.0 | 0.0 | 0.00 | 0.12 | 0.01 | 92 | 1019.6 |
| 20260831073107 | 63 | 0 | 0.0 | 4.0 | 0.00 | 0.12 | 0.01 | 92 | 1019.5 |
| 20260831071559 | 63 | 0 | 0.0 | 2.0 | 0.00 | 0.12 | 0.01 | 92 | 1019.6 |
| 20260831070106 | 63 | 0 | 0.0 | 9.0 | 0.00 | 0.12 | 0.01 | 92 | 1019.4 |
| 20260831064607 | 63 | 0 | 0.0 | 3.0 | 0.00 | 0.12 | 0.01 | 92 | 1019.5 |
| 20260831063104 | 63 | 0 | 0.0 | 2.0 | 0.00 | 0.12 | 0.01 | 92 | 1019.3 |
| 20260831061602 | 63 | 0 | 0.0 | 4.0 | 0.00 | 0.12 | 0.01 | 93 | 1019.2 |
| 20260831060105 | 63 | 0 | 0.0 | 3.0 | 0.01 | 0.12 | 0.01 | 93 | 1019.0 |
| 20260831054605 | 63 | 0 | 0.0 | 0.0 | 0.01 | 0.12 | 0.01 | 93 | 1019.3 |
| 20260831053113 | 64 | 0 | 0.0 | 5.0 | 0.01 | 0.12 | 0.01 | 93 | 1019.4 |
| 20260831051611 | 64 | 0 | 0.0 | 2.0 | 0.01 | 0.12 | 0.01 | 93 | 1019.4 |
| 20260831050113 | 64 | 0 | 0.0 | 0.0 | 0.00 | 0.11 | 0.00 | 94 | 1019.2 |
| 20260831044614 | 65 | 0 | 0.0 | 0.0 | 0.00 | 0.11 | 0.00 | 94 | 1019.4 |
| 20260831043110 | 65 | 0 | 0.0 | 1.0 | 0.00 | 0.11 | 0.00 | 94 | 1019.3 |
| 20260831041604 | 65 | 0 | 0.0 | 0.0 | 0.00 | 0.11 | 0.00 | 94 | 1019.3 |
| 20260831040105 | 65 | 0 | 0.0 | 3.0 | 0.00 | 0.11 | 0.00 | 93 | 1019.2 |
| 20260831034606 | 66 | 259 | 0.0 | 2.0 | 0.00 | 0.11 | 0.11 | 93 | 1019.2 |
| 20260831033113 | 67 | 0 | 0.0 | 0.0 | 0.00 | 0.11 | 0.11 | 93 | 1019.3 |
| 20260831031606 | 68 | 0 | 0.0 | 0.0 | 0.00 | 0.11 | 0.11 | 94 | 1019.4 |
| 20260831024603 | 68 | 0 | 0.0 | 0.0 | 0.04 | 0.11 | 0.11 | 94 | 1019.6 |
| 20260831023057 | 68 | 0 | 0.0 | 0.0 | 0.09 | 0.11 | 0.11 | 94 | 1019.6 |
| 20260831021604 | 69 | 0 | 0.0 | 0.0 | 0.11 | 0.11 | 0.11 | 93 | 1019.7 |
| 20260831020110 | 69 | 0 | 0.0 | 6.0 | 0.10 | 0.10 | 0.10 | 94 | 1019.5 |
| 20260831014603 | 69 | 0 | 0.0 | 0.0 | 0.07 | 0.07 | 0.07 | 93 | 1019.4 |
| 20260831013100 | 70 | 0 | 0.0 | 0.0 | 0.02 | 0.02 | 0.02 | 93 | 1019.3 |
| 20260831011555 | 69 | 0 | 0.0 | 1.0 | 0.00 | 0.00 | 0.00 | 93 | 1019.0 |
| 20260831010104 | 69 | 0 | 0.0 | 0.0 | 0.00 | 0.00 | 0.00 | 93 | 1018.8 |
| 20260831004558 | 69 | 0 | 0.0 | 0.0 | 0.00 | 0.00 | 0.00 | 92 | 1018.9 |
| 20260831003105 | 69 | 0 | 0.0 | 2.0 | 0.00 | 0.00 | 0.00 | 92 | 1018.6 |
| 20260831001608 | 69 | 0 | 0.0 | 0.0 | 0.00 | 0.00 | 0.00 | 92 | 1018.4 |
| 20260830234605 | 70 | 0 | 0.0 | 0.0 | 0.00 | 0.00 | 0.00 | 92 | 1018.2 |
| 20260830233101 | 70 | 0 | 0.0 | 0.0 | 0.00 | 0.00 | 0.00 | 91 | 1018.0 |
| 20260830231601 | 70 | 0 | 0.0 | 0.0 | 0.00 | 0.00 | 0.00 | 90 | 1018.0 |
| 20260830230058 | 71 | 0 | 0.0 | 0.0 | 0.00 | 0.00 | 0.00 | 88 | 1018.3 |
| 20260830224600 | 71 | 0 | 0.0 | 0.0 | 0.00 | 0.00 | 0.00 | 86 | 1018.2 |
| 20260830223059 | 71 | 0 | 0.0 | 0.0 | 0.00 | 0.00 | 0.00 | 85 | 1018.2 |
| 20260830221557 | 72 | 0 | 0.0 | 4.0 | 0.00 | 0.00 | 0.00 | 84 | 1018.3 |
| 20260830214618 | 72 | 196 | 1.0 | 5.0 | 0.00 | 0.00 | 0.00 | 84 | 1018.2 |
| 20260830213105 | 72 | 244 | 1.0 | 5.0 | 0.00 | 0.00 | 0.00 | 83 | 1018.1 |
| 20260830211601 | 73 | 216 | 0.0 | 4.0 | 0.00 | 0.00 | 0.00 | 83 | 1018.1 |
| 20260830210058 | 73 | 0 | 0.0 | 2.0 | 0.00 | 0.00 | 0.00 | 82 | 1018.2 |
| 20260830204554 | 73 | 187 | 1.0 | 4.0 | 0.00 | 0.00 | 0.00 | 80 | 1018.3 |
| 20260830203102 | 74 | 243 | 1.0 | 7.0 | 0.00 | 0.00 | 0.00 | 79 | 1018.3 |
| 20260830201602 | 74 | 213 | 3.0 | 8.0 | 0.00 | 0.00 | 0.00 | 79 | 1018.3 |
| 20260830200105 | 74 | 219 | 1.0 | 10.0 | 0.00 | 0.00 | 0.00 | 76 | 1018.5 |
| 20260830194608 | 74 | 252 | 4.0 | 10.0 | 0.00 | 0.00 | 0.00 | 75 | 1018.6 |
| 20260830193129 | 75 | 221 | 1.0 | 8.0 | 0.00 | 0.00 | 0.00 | 72 | 1018.6 |
| 20260830191558 | 75 | 0 | 4.0 | 10.0 | 0.00 | 0.00 | 0.00 | 72 | 1018.7 |
| 20260830190104 | 73 | 190 | 2.0 | 6.0 | 0.00 | 0.00 | 0.00 | 74 | 1019.0 |
| 20260830184601 | 72 | 0 | 0.0 | 5.0 | 0.00 | 0.00 | 0.00 | 74 | 1019.4 |
| 20260830183102 | 73 | 202 | 3.0 | 8.0 | 0.00 | 0.00 | 0.00 | 73 | 1019.6 |
| 20260830181606 | 74 | 242 | 3.0 | 8.0 | 0.00 | 0.00 | 0.00 | 70 | 1019.7 |
| 20260830174613 | 75 | 252 | 4.0 | 9.0 | 0.00 | 0.00 | 0.00 | 70 | 1019.6 |
| 20260830173116 | 75 | 290 | 1.0 | 9.0 | 0.00 | 0.00 | 0.00 | 70 | 1019.5 |
| 20260830171604 | 75 | 284 | 5.0 | 10.0 | 0.00 | 0.00 | 0.00 | 68 | 1019.9 |
| 20260830170101 | 74 | 248 | 2.0 | 9.0 | 0.00 | 0.00 | 0.00 | 69 | 1020.1 |
| 20260830164552 | 73 | 218 | 3.0 | 8.0 | 0.00 | 0.00 | 0.00 | 71 | 1020.1 |
| 20260830163100 | 74 | 265 | 2.0 | 8.0 | 0.00 | 0.00 | 0.00 | 68 | 1020.3 |
| 20260830161558 | 74 | 193 | 2.0 | 7.0 | 0.00 | 0.00 | 0.00 | 67 | 1020.4 |
| 20260830160104 | 73 | 194 | 1.0 | 7.0 | 0.00 | 0.00 | 0.00 | 64 | 1020.7 |
| 20260830154604 | 72 | 263 | 3.0 | 9.0 | 0.00 | 0.00 | 0.00 | 67 | 1021.0 |
| 20260830153105 | 72 | 242 | 4.0 | 10.0 | 0.00 | 0.00 | 0.00 | 67 | 1021.2 |
| 20260830151602 | 71 | 255 | 5.0 | 10.0 | 0.00 | 0.00 | 0.00 | 67 | 1021.4 |
| 20260830150100 | 70 | 267 | 3.0 | 8.0 | 0.00 | 0.00 | 0.00 | 67 | 1021.6 |
| 20260830144607 | 69 | 252 | 1.0 | 7.0 | 0.00 | 0.00 | 0.00 | 72 | 1021.8 |
| 20260830143101 | 69 | 250 | 4.0 | 9.0 | 0.00 | 0.00 | 0.00 | 72 | 1021.8 |
| 20260830141558 | 68 | 227 | 1.0 | 6.0 | 0.00 | 0.00 | 0.00 | 73 | 1021.7 |
| 20260830140107 | 67 | 0 | 1.0 | 4.0 | 0.00 | 0.00 | 0.00 | 72 | 1021.8 |
| 20260830134614 | 67 | 0 | 0.0 | 5.0 | 0.00 | 0.00 | 0.00 | 72 | 1021.7 |
| 20260830133111 | 67 | 195 | 2.0 | 7.0 | 0.00 | 0.00 | 0.00 | 72 | 1021.8 |
| 20260830131558 | 66 | 0 | 0.0 | 5.0 | 0.00 | 0.00 | 0.00 | 70 | 1022.0 |
| 20260830130110 | 65 | 0 | 0.0 | 4.0 | 0.00 | 0.00 | 0.00 | 74 | 1022.2 |
| 20260830124600 | 65 | 139 | 0.0 | 4.0 | 0.00 | 0.00 | 0.00 | 75 | 1022.4 |
| 20260830123110 | 64 | 0 | 0.0 | 1.0 | 0.00 | 0.00 | 0.00 | 76 | 1022.7 |
| 20260830121607 | 64 | 0 | 0.0 | 0.0 | 0.00 | 0.00 | 0.00 | 79 | 1022.6 |
| 20260830120104 | 63 | 0 | 0.0 | 0.0 | 0.00 | 0.00 | 0.00 | 80 | 1022.7 |
| 20260830114613 | 62 | 0 | 0.0 | 0.0 | 0.00 | 0.00 | 0.00 | 82 | 1022.8 |
| 20260830113059 | 61 | 0 | 0.0 | 0.0 | 0.00 | 0.00 | 0.00 | 82 | 1022.8 |
| 20260830111601 | 61 | 0 | 0.0 | 0.0 | 0.00 | 0.00 | 0.00 | 81 | 1022.8 |
| 20260830110105 | 61 | 0 | 0.0 | 0.0 | 0.00 | 0.00 | 0.00 | 79 | 1022.6 |
| 20260830104616 | 61 | 0 | 0.0 | 0.0 | 0.00 | 0.00 | 0.00 | 80 | 1022.5 |
| 20260830103119 | 61 | 0 | 0.0 | 0.0 | 0.00 | 0.00 | 0.00 | 79 | 1022.5 |
| 20260830101558 | 61 | 0 | 0.0 | 0.0 | 0.00 | 0.00 | 0.00 | 79 | 1022.6 |
| 20260830100104 | 61 | 0 | 0.0 | 0.0 | 0.00 | 0.00 | 0.00 | 80 | 1022.5 |
| 20260830094559 | 61 | 0 | 0.0 | 0.0 | 0.00 | 0.00 | 0.00 | 80 | 1022.6 |
| 20260830093104 | 62 | 0 | 0.0 | 0.0 | 0.00 | 0.00 | 0.00 | 79 | 1022.7 |
| 20260830091602 | 61 | 0 | 0.0 | 0.0 | 0.00 | 0.00 | 0.00 | 80 | 1022.6 |
| 20260830090101 | 61 | 0 | 0.0 | 0.0 | 0.00 | 0.00 | 0.00 | 79 | 1022.7 |
| 20260830084559 | 61 | 0 | 0.0 | 0.0 | 0.00 | 0.00 | 0.00 | 80 | 1022.8 |
| 20260830083109 | 61 | 0 | 0.0 | 0.0 | 0.00 | 0.00 | 0.00 | 80 | 1022.9 |
| 20260830081601 | 61 | 0 | 0.0 | 0.0 | 0.00 | 0.00 | 0.00 | 82 | 1023.0 |
| 20260830080123 | 61 | 0 | 0.0 | 0.0 | 0.00 | 0.00 | 0.00 | 82 | 1022.8 |